| time (UTC) | temp F | wind direction | speed MPH | gust MPH | rain 1hr in | rain 24hr in | rain mn in | humidity % | barometer mb |
| 20260509172430 | 81 | 176 | 2.0 | 4.0 | 0.00 | 0.04 | 0.00 | 46 | 1011.9 |
| 20260509171429 | 80 | 100 | 1.0 | 3.0 | 0.00 | 0.04 | 0.00 | 51 | 1011.9 |
| 20260509170929 | 80 | 230 | 1.0 | 3.0 | 0.00 | 0.04 | 0.00 | 50 | 1011.9 |
| 20260509170429 | 80 | 238 | 1.0 | 4.0 | 0.00 | 0.04 | 0.00 | 49 | 1011.9 |
| 20260509165929 | 79 | 73 | 1.0 | 4.0 | 0.00 | 0.04 | 0.00 | 48 | 1011.8 |
| 20260509165428 | 79 | 75 | 1.0 | 3.0 | 0.00 | 0.04 | 0.00 | 51 | 1011.8 |
| 20260509164930 | 79 | 229 | 1.0 | 3.0 | 0.00 | 0.04 | 0.00 | 53 | 1011.8 |
| 20260509164429 | 79 | 159 | 1.0 | 3.0 | 0.00 | 0.04 | 0.00 | 53 | 1011.8 |
| 20260509163928 | 78 | 222 | 1.0 | 3.0 | 0.00 | 0.04 | 0.00 | 57 | 1011.9 |
| 20260509163429 | 78 | 69 | 1.0 | 3.0 | 0.00 | 0.04 | 0.00 | 52 | 1012.0 |
| 20260509162929 | 78 | 319 | 1.0 | 6.0 | 0.00 | 0.04 | 0.00 | 56 | 1012.0 |
| 20260509162430 | 78 | 196 | 1.0 | 6.0 | 0.00 | 0.04 | 0.00 | 58 | 1012.0 |
| 20260509161929 | 77 | 241 | 2.0 | 4.0 | 0.00 | 0.04 | 0.00 | 56 | 1012.0 |
| 20260509161429 | 77 | 183 | 1.0 | 4.0 | 0.00 | 0.04 | 0.00 | 57 | 1012.0 |
| 20260509160929 | 77 | 280 | 1.0 | 4.0 | 0.00 | 0.04 | 0.00 | 61 | 1012.1 |
| 20260509160429 | 76 | 91 | 1.0 | 4.0 | 0.00 | 0.04 | 0.00 | 59 | 1012.0 |
| 20260509155929 | 76 | 180 | 1.0 | 4.0 | 0.00 | 0.04 | 0.00 | 64 | 1012.0 |
| 20260509155429 | 75 | 249 | 1.0 | 3.0 | 0.00 | 0.04 | 0.00 | 62 | 1012.0 |
| 20260509154928 | 75 | 268 | 2.0 | 5.0 | 0.00 | 0.04 | 0.00 | 61 | 1012.0 |
| 20260509154429 | 74 | 196 | 2.0 | 5.0 | 0.00 | 0.04 | 0.00 | 62 | 1012.0 |
| 20260509153936 | 74 | 267 | 2.0 | 6.0 | 0.00 | 0.04 | 0.00 | 65 | 1012.1 |
| 20260509153433 | 74 | 200 | 1.0 | 6.0 | 0.00 | 0.04 | 0.00 | 64 | 1012.1 |
| 20260509152931 | 74 | 257 | 2.0 | 5.0 | 0.00 | 0.04 | 0.00 | 70 | 1012.1 |
| 20260509152430 | 73 | 157 | 2.0 | 5.0 | 0.00 | 0.04 | 0.00 | 66 | 1012.1 |
| 20260509151930 | 73 | 218 | 1.0 | 4.0 | 0.00 | 0.04 | 0.00 | 68 | 1012.0 |
| 20260509150429 | 72 | 150 | 1.0 | 4.0 | 0.00 | 0.04 | 0.00 | 72 | 1011.9 |
| 20260509145930 | 71 | 212 | 1.0 | 4.0 | 0.00 | 0.04 | 0.00 | 72 | 1011.9 |
| 20260509144928 | 70 | 198 | 1.0 | 4.0 | 0.00 | 0.04 | 0.00 | 74 | 1012.0 |
| 20260509144429 | 70 | 175 | 1.0 | 4.0 | 0.00 | 0.04 | 0.00 | 74 | 1012.0 |
| 20260509143927 | 69 | 273 | 1.0 | 3.0 | 0.00 | 0.04 | 0.00 | 78 | 1011.9 |
| 20260509142407 | 66 | 152 | 1.0 | 4.0 | 0.00 | 0.04 | 0.00 | 84 | 1011.8 |
| 20260509141908 | 65 | 163 | 1.0 | 3.0 | 0.00 | 0.04 | 0.00 | 87 | 1011.9 |
| 20260509141407 | 64 | 145 | 1.0 | 3.0 | 0.00 | 0.04 | 0.00 | 91 | 1011.9 |
| 20260509140907 | 63 | 167 | 1.0 | 3.0 | 0.00 | 0.04 | 0.00 | 94 | 1011.8 |
| 20260509140405 | 63 | 190 | 1.0 | 3.0 | 0.00 | 0.04 | 0.00 | 95 | 1011.8 |
| 20260509135403 | 61 | 133 | 1.0 | 4.0 | 0.00 | 0.04 | 0.00 | 96 | 1011.6 |
| 20260509134901 | 61 | 183 | 1.0 | 3.0 | 0.00 | 0.04 | 0.00 | 96 | 1011.6 |
| 20260509134401 | 60 | 150 | 1.0 | 4.0 | 0.00 | 0.04 | 0.00 | 97 | 1011.5 |
| 20260509133900 | 60 | 166 | 0.0 | 4.0 | 0.00 | 0.04 | 0.00 | 96 | 1011.6 |
| 20260509132901 | 58 | 213 | 0.0 | 3.0 | 0.00 | 0.04 | 0.00 | 97 | 1011.5 |
| 20260509132400 | 57 | 196 | 0.0 | 1.0 | 0.00 | 0.04 | 0.00 | 97 | 1011.4 |
| 20260509131901 | 56 | 196 | 0.0 | 1.0 | 0.00 | 0.04 | 0.00 | 96 | 1011.3 |
| 20260509131401 | 55 | 196 | 0.0 | 1.0 | 0.00 | 0.04 | 0.00 | 96 | 1011.3 |
| 20260509130354 | 53 | 205 | 0.0 | 1.0 | 0.00 | 0.04 | 0.00 | 96 | 1011.3 |
| 20260509125847 | 52 | 205 | 0.0 | 0.0 | 0.00 | 0.04 | 0.00 | 95 | 1011.4 |
| 20260509125339 | 51 | 205 | 0.0 | 0.0 | 0.00 | 0.04 | 0.00 | 95 | 1011.4 |
| 20260509124837 | 51 | 205 | 0.0 | 0.0 | 0.00 | 0.04 | 0.00 | 95 | 1011.3 |
| 20260509123336 | 50 | 205 | 0.0 | 0.0 | 0.00 | 0.04 | 0.00 | 94 | 1011.3 |
| 20260509122833 | 50 | 205 | 0.0 | 0.0 | 0.00 | 0.04 | 0.00 | 94 | 1011.2 |
| 20260509122333 | 50 | 205 | 0.0 | 0.0 | 0.00 | 0.04 | 0.00 | 94 | 1010.9 |
| 20260509121833 | 50 | 205 | 0.0 | 0.0 | 0.00 | 0.04 | 0.00 | 94 | 1010.9 |
| 20260509120830 | 49 | 205 | 0.0 | 0.0 | 0.00 | 0.04 | 0.00 | 94 | 1010.8 |
| 20260509120330 | 49 | 205 | 0.0 | 0.0 | 0.00 | 0.04 | 0.00 | 94 | 1010.8 |
| 20260509115829 | 49 | 205 | 0.0 | 0.0 | 0.00 | 0.04 | 0.00 | 94 | 1010.8 |
| 20260509115330 | 49 | 205 | 0.0 | 0.0 | 0.00 | 0.04 | 0.00 | 94 | 1010.8 |
| 20260509114829 | 49 | 205 | 0.0 | 0.0 | 0.00 | 0.04 | 0.00 | 93 | 1010.8 |
| 20260509114329 | 49 | 205 | 0.0 | 0.0 | 0.00 | 0.04 | 0.00 | 93 | 1010.7 |
| 20260509113828 | 49 | 205 | 0.0 | 0.0 | 0.00 | 0.04 | 0.00 | 93 | 1010.7 |
| 20260509113329 | 49 | 205 | 0.0 | 0.0 | 0.00 | 0.04 | 0.00 | 93 | 1010.7 |
| 20260509112829 | 49 | 205 | 0.0 | 0.0 | 0.00 | 0.04 | 0.00 | 93 | 1010.7 |
| 20260509111829 | 49 | 205 | 0.0 | 0.0 | 0.00 | 0.04 | 0.00 | 93 | 1010.6 |
| 20260509111330 | 50 | 205 | 0.0 | 1.0 | 0.00 | 0.04 | 0.00 | 93 | 1010.5 |
| 20260509110830 | 50 | 205 | 0.0 | 1.0 | 0.00 | 0.04 | 0.00 | 93 | 1010.4 |
| 20260509105830 | 50 | 205 | 0.0 | 0.0 | 0.00 | 0.04 | 0.00 | 93 | 1010.3 |
| 20260509104331 | 50 | 205 | 0.0 | 0.0 | 0.00 | 0.04 | 0.00 | 93 | 1010.2 |
| 20260509103829 | 50 | 205 | 0.0 | 0.0 | 0.00 | 0.04 | 0.00 | 93 | 1010.2 |
| 20260509102829 | 51 | 205 | 0.0 | 1.0 | 0.00 | 0.04 | 0.00 | 93 | 1010.1 |
| 20260509102329 | 51 | 205 | 0.0 | 1.0 | 0.00 | 0.04 | 0.00 | 93 | 1010.2 |
| 20260509101829 | 51 | 205 | 0.0 | 1.0 | 0.00 | 0.04 | 0.00 | 93 | 1010.2 |
| 20260509100829 | 51 | 205 | 0.0 | 1.0 | 0.00 | 0.04 | 0.00 | 93 | 1010.0 |
| 20260509095829 | 51 | 205 | 0.0 | 0.0 | 0.00 | 0.04 | 0.00 | 93 | 1010.1 |
| 20260509094829 | 51 | 205 | 0.0 | 0.0 | 0.00 | 0.04 | 0.00 | 92 | 1010.2 |
| 20260509093830 | 52 | 205 | 0.0 | 1.0 | 0.00 | 0.04 | 0.00 | 92 | 1010.2 |
| 20260509093329 | 52 | 205 | 0.0 | 1.0 | 0.00 | 0.04 | 0.00 | 92 | 1010.3 |
| 20260509091330 | 53 | 205 | 0.0 | 1.0 | 0.00 | 0.04 | 0.00 | 92 | 1010.5 |
| 20260509090830 | 53 | 205 | 0.0 | 1.0 | 0.00 | 0.04 | 0.00 | 92 | 1010.5 |
| 20260509090330 | 53 | 206 | 0.0 | 1.0 | 0.00 | 0.04 | 0.00 | 92 | 1010.5 |
| 20260509085829 | 53 | 206 | 0.0 | 1.0 | 0.00 | 0.04 | 0.00 | 92 | 1010.5 |
| 20260509085329 | 53 | 206 | 0.0 | 0.0 | 0.00 | 0.04 | 0.00 | 92 | 1010.5 |
| 20260509084829 | 53 | 206 | 0.0 | 1.0 | 0.00 | 0.04 | 0.00 | 92 | 1010.5 |
| 20260509084329 | 53 | 206 | 0.0 | 1.0 | 0.00 | 0.04 | 0.00 | 92 | 1010.5 |
| 20260509083329 | 54 | 206 | 0.0 | 1.0 | 0.00 | 0.04 | 0.00 | 92 | 1010.6 |
| 20260509082829 | 54 | 206 | 0.0 | 0.0 | 0.00 | 0.04 | 0.00 | 92 | 1010.7 |
| 20260509082329 | 54 | 206 | 0.0 | 0.0 | 0.00 | 0.04 | 0.00 | 92 | 1010.8 |
| 20260509081329 | 54 | 206 | 0.0 | 0.0 | 0.00 | 0.04 | 0.00 | 92 | 1010.8 |
| 20260509080829 | 54 | 206 | 0.0 | 0.0 | 0.00 | 0.04 | 0.00 | 92 | 1010.8 |
| 20260509080329 | 54 | 206 | 0.0 | 0.0 | 0.00 | 0.04 | 0.00 | 92 | 1010.8 |
| 20260509075829 | 54 | 206 | 0.0 | 0.0 | 0.00 | 0.04 | 0.00 | 92 | 1010.8 |
| 20260509075328 | 54 | 206 | 0.0 | 0.0 | 0.00 | 0.04 | 0.00 | 91 | 1010.7 |
| 20260509074829 | 54 | 206 | 0.0 | 0.0 | 0.00 | 0.04 | 0.00 | 91 | 1010.8 |
| 20260509074329 | 54 | 206 | 0.0 | 1.0 | 0.00 | 0.04 | 0.00 | 91 | 1010.7 |
| 20260509073831 | 54 | 206 | 0.0 | 1.0 | 0.00 | 0.04 | 0.00 | 91 | 1010.7 |
| 20260509072329 | 54 | 206 | 0.0 | 1.0 | 0.00 | 0.04 | 0.00 | 90 | 1010.6 |
| 20260509071829 | 55 | 206 | 0.0 | 1.0 | 0.00 | 0.04 | 0.00 | 90 | 1010.6 |
| 20260509071329 | 55 | 206 | 0.0 | 1.0 | 0.00 | 0.04 | 0.00 | 90 | 1010.5 |
| 20260509070829 | 55 | 206 | 0.0 | 0.0 | 0.00 | 0.04 | 0.00 | 90 | 1010.6 |
| 20260509070329 | 55 | 206 | 0.0 | 0.0 | 0.00 | 0.04 | 0.00 | 90 | 1010.6 |
| 20260509065824 | 55 | 206 | 0.0 | 1.0 | 0.00 | 0.04 | 0.00 | 90 | 1010.7 |
| 20260509065323 | 55 | 206 | 0.0 | 1.0 | 0.00 | 0.04 | 0.00 | 90 | 1010.7 |
| 20260509064817 | 55 | 206 | 0.0 | 1.0 | 0.00 | 0.04 | 0.00 | 89 | 1010.8 |
| 20260509064311 | 55 | 206 | 0.0 | 1.0 | 0.00 | 0.04 | 0.00 | 89 | 1010.9 |
| 20260509063308 | 55 | 206 | 0.0 | 0.0 | 0.00 | 0.04 | 0.00 | 88 | 1010.9 |
| 20260509062806 | 55 | 206 | 0.0 | 0.0 | 0.00 | 0.04 | 0.00 | 88 | 1011.1 |
| 20260509062306 | 55 | 206 | 0.0 | 2.0 | 0.00 | 0.04 | 0.00 | 87 | 1011.1 |
| 20260509061803 | 56 | 206 | 0.0 | 2.0 | 0.00 | 0.04 | 0.00 | 87 | 1011.1 |
| 20260509061302 | 56 | 206 | 0.0 | 1.0 | 0.00 | 0.04 | 0.00 | 87 | 1011.1 |
| 20260509060803 | 56 | 206 | 0.0 | 1.0 | 0.00 | 0.04 | 0.00 | 86 | 1011.1 |
| 20260509060302 | 56 | 206 | 0.0 | 3.0 | 0.00 | 0.04 | 0.00 | 86 | 1011.2 |
| 20260509055804 | 56 | 206 | 0.0 | 3.0 | 0.00 | 0.04 | 0.00 | 86 | 1011.1 |
| 20260509055302 | 56 | 67 | 0.0 | 0.0 | 0.00 | 0.04 | 0.00 | 85 | 1011.2 |
| 20260509054803 | 57 | 67 | 0.0 | 0.0 | 0.00 | 0.04 | 0.00 | 86 | 1011.2 |
| 20260509054303 | 57 | 67 | 0.0 | 1.0 | 0.00 | 0.04 | 0.00 | 86 | 1011.2 |
| 20260509053803 | 57 | 67 | 0.0 | 1.0 | 0.00 | 0.04 | 0.00 | 86 | 1011.2 |
| 20260509053303 | 57 | 67 | 0.0 | 1.0 | 0.00 | 0.04 | 0.00 | 86 | 1011.1 |
| 20260509052306 | 58 | 67 | 0.0 | 0.0 | 0.00 | 0.04 | 0.00 | 84 | 1011.2 |
| 20260509050801 | 58 | 67 | 0.0 | 1.0 | 0.00 | 0.04 | 0.00 | 84 | 1011.4 |
| 20260509050301 | 58 | 67 | 0.0 | 1.0 | 0.00 | 0.04 | 0.00 | 83 | 1011.3 |
| 20260509045301 | 59 | 67 | 0.0 | 1.0 | 0.00 | 0.04 | 0.04 | 83 | 1011.3 |
| 20260509044801 | 59 | 67 | 0.0 | 1.0 | 0.00 | 0.04 | 0.04 | 84 | 1011.3 |
| 20260509044301 | 59 | 62 | 0.0 | 1.0 | 0.00 | 0.04 | 0.04 | 84 | 1011.3 |
| 20260509043800 | 59 | 60 | 0.0 | 1.0 | 0.00 | 0.04 | 0.04 | 83 | 1011.2 |
| 20260509043301 | 60 | 60 | 0.0 | 1.0 | 0.00 | 0.04 | 0.04 | 83 | 1011.2 |
| 20260509042801 | 60 | 60 | 0.0 | 1.0 | 0.00 | 0.04 | 0.04 | 82 | 1011.2 |
| 20260509042306 | 60 | 60 | 1.0 | 2.0 | 0.00 | 0.04 | 0.04 | 82 | 1011.1 |
| 20260509040800 | 61 | 114 | 0.0 | 1.0 | 0.00 | 0.04 | 0.04 | 79 | 1010.8 |
| 20260509035800 | 62 | 113 | 0.0 | 1.0 | 0.00 | 0.04 | 0.04 | 79 | 1010.7 |
| 20260509035301 | 62 | 111 | 0.0 | 2.0 | 0.00 | 0.04 | 0.04 | 79 | 1010.6 |
| 20260509034800 | 62 | 117 | 0.0 | 4.0 | 0.00 | 0.04 | 0.04 | 78 | 1010.2 |
| 20260509034250 | 62 | 21 | 1.0 | 4.0 | 0.00 | 0.04 | 0.04 | 78 | 1010.3 |
| 20260509033740 | 62 | 287 | 1.0 | 5.0 | 0.00 | 0.04 | 0.04 | 77 | 1010.2 |
| 20260509033240 | 62 | 333 | 1.0 | 5.0 | 0.00 | 0.04 | 0.04 | 76 | 1009.8 |
| 20260509032740 | 63 | 206 | 1.0 | 4.0 | 0.00 | 0.04 | 0.04 | 76 | 1009.5 |
| 20260509032240 | 63 | 196 | 2.0 | 5.0 | 0.00 | 0.04 | 0.04 | 76 | 1009.4 |
| 20260509031740 | 63 | 224 | 2.0 | 6.0 | 0.00 | 0.04 | 0.04 | 75 | 1009.2 |
| 20260509030240 | 64 | 196 | 2.0 | 6.0 | 0.00 | 0.04 | 0.04 | 72 | 1009.1 |
| 20260509025740 | 64 | 221 | 3.0 | 7.0 | 0.00 | 0.04 | 0.04 | 71 | 1008.9 |
| 20260509024730 | 64 | 236 | 3.0 | 7.0 | 0.00 | 0.04 | 0.04 | 69 | 1008.6 |
| 20260509023730 | 65 | 250 | 3.0 | 8.0 | 0.00 | 0.04 | 0.04 | 67 | 1008.4 |
| 20260509023229 | 65 | 223 | 4.0 | 10.0 | 0.00 | 0.04 | 0.04 | 67 | 1008.2 |
| 20260509022230 | 65 | 210 | 4.0 | 9.0 | 0.00 | 0.04 | 0.04 | 64 | 1008.1 |
| 20260509021729 | 66 | 155 | 4.0 | 8.0 | 0.00 | 0.04 | 0.04 | 64 | 1007.9 |
| 20260509021229 | 66 | 237 | 5.0 | 16.0 | 0.00 | 0.04 | 0.04 | 63 | 1007.8 |
| 20260509020229 | 66 | 186 | 4.0 | 14.0 | 0.01 | 0.04 | 0.04 | 62 | 1007.8 |
| 20260509015728 | 66 | 190 | 4.0 | 13.0 | 0.01 | 0.04 | 0.04 | 61 | 1007.6 |
| 20260509015229 | 67 | 244 | 5.0 | 13.0 | 0.01 | 0.04 | 0.04 | 62 | 1007.8 |
| 20260509014729 | 67 | 173 | 6.0 | 13.0 | 0.01 | 0.04 | 0.04 | 61 | 1007.8 |
| 20260509014229 | 67 | 202 | 6.0 | 14.0 | 0.01 | 0.04 | 0.04 | 59 | 1007.8 |
| 20260509013729 | 67 | 180 | 6.0 | 14.0 | 0.02 | 0.04 | 0.04 | 59 | 1007.0 |
| 20260509013229 | 66 | 222 | 6.0 | 13.0 | 0.03 | 0.04 | 0.04 | 60 | 1006.6 |
| 20260509012730 | 66 | 199 | 6.0 | 13.0 | 0.04 | 0.04 | 0.04 | 60 | 1007.3 |
| 20260509011729 | 66 | 271 | 7.0 | 16.0 | 0.04 | 0.04 | 0.04 | 62 | 1008.2 |
| 20260509011229 | 66 | 232 | 6.0 | 16.0 | 0.04 | 0.04 | 0.04 | 63 | 1008.2 |
| 20260509010729 | 65 | 229 | 5.0 | 12.0 | 0.03 | 0.03 | 0.03 | 66 | 1007.8 |
| 20260509010229 | 65 | 213 | 5.0 | 10.0 | 0.03 | 0.03 | 0.03 | 71 | 1008.1 |
| 20260509005729 | 65 | 227 | 5.0 | 11.0 | 0.03 | 0.03 | 0.03 | 71 | 1008.5 |
| 20260509005229 | 66 | 185 | 4.0 | 11.0 | 0.03 | 0.03 | 0.03 | 72 | 1008.0 |
| 20260509004731 | 67 | 172 | 3.0 | 7.0 | 0.03 | 0.03 | 0.03 | 74 | 1008.4 |
| 20260509004229 | 68 | 197 | 3.0 | 7.0 | 0.03 | 0.03 | 0.03 | 72 | 1008.9 |
| 20260509003729 | 69 | 173 | 2.0 | 7.0 | 0.02 | 0.02 | 0.02 | 71 | 1009.8 |
| 20260509003229 | 70 | 221 | 2.0 | 5.0 | 0.01 | 0.01 | 0.01 | 67 | 1009.8 |
| 20260509002730 | 71 | 184 | 1.0 | 4.0 | 0.00 | 0.00 | 0.00 | 65 | 1009.9 |
| 20260509002229 | 71 | 165 | 1.0 | 4.0 | 0.00 | 0.00 | 0.00 | 62 | 1010.1 |
| 20260509001729 | 72 | 259 | 0.0 | 3.0 | 0.00 | 0.00 | 0.00 | 59 | 1009.9 |
| 20260509001229 | 72 | 0 | 0.0 | 2.0 | 0.00 | 0.00 | 0.00 | 58 | 1009.3 |
| 20260508235221 | 73 | 165 | 0.0 | 2.0 | 0.00 | 0.00 | 0.00 | 54 | 1008.4 |
| 20260508234721 | 73 | 115 | 0.0 | 2.0 | 0.00 | 0.00 | 0.00 | 54 | 1008.5 |
| 20260508234222 | 74 | 119 | 0.0 | 2.0 | 0.00 | 0.00 | 0.00 | 55 | 1008.5 |
| 20260508233724 | 74 | 130 | 0.0 | 2.0 | 0.00 | 0.00 | 0.00 | 55 | 1008.5 |
| 20260508233223 | 74 | 170 | 0.0 | 2.0 | 0.00 | 0.00 | 0.00 | 53 | 1008.5 |
| 20260508232717 | 74 | 179 | 0.0 | 2.0 | 0.00 | 0.00 | 0.00 | 53 | 1008.6 |
| 20260508232204 | 75 | 197 | 0.0 | 2.0 | 0.00 | 0.00 | 0.00 | 52 | 1008.5 |
| 20260508231701 | 75 | 134 | 0.0 | 2.0 | 0.00 | 0.00 | 0.00 | 51 | 1008.5 |
| 20260508231202 | 75 | 132 | 1.0 | 6.0 | 0.00 | 0.00 | 0.00 | 49 | 1008.7 |
| 20260508230703 | 75 | 250 | 1.0 | 6.0 | 0.00 | 0.00 | 0.00 | 48 | 1008.8 |
| 20260508230202 | 76 | 195 | 2.0 | 6.0 | 0.00 | 0.00 | 0.00 | 49 | 1008.7 |
| 20260508225201 | 76 | 0 | 1.0 | 6.0 | 0.00 | 0.00 | 0.00 | 49 | 1008.8 |
| 20260508224201 | 76 | 220 | 3.0 | 7.0 | 0.00 | 0.00 | 0.00 | 45 | 1008.8 |
| 20260508223701 | 76 | 223 | 2.0 | 7.0 | 0.00 | 0.00 | 0.00 | 46 | 1008.6 |
| 20260508223201 | 77 | 192 | 1.0 | 4.0 | 0.00 | 0.00 | 0.00 | 50 | 1008.6 |
| 20260508222201 | 77 | 191 | 3.0 | 5.0 | 0.00 | 0.00 | 0.00 | 47 | 1008.4 |
| 20260508221202 | 78 | 209 | 3.0 | 6.0 | 0.00 | 0.00 | 0.00 | 47 | 1008.4 |
| 20260508220703 | 78 | 302 | 2.0 | 5.0 | 0.00 | 0.00 | 0.00 | 49 | 1008.2 |
| 20260508220202 | 78 | 252 | 3.0 | 7.0 | 0.00 | 0.00 | 0.00 | 45 | 1008.2 |
| 20260508215701 | 79 | 224 | 3.0 | 8.0 | 0.00 | 0.00 | 0.00 | 43 | 1008.4 |
| 20260508215201 | 79 | 188 | 4.0 | 11.0 | 0.00 | 0.00 | 0.00 | 48 | 1008.4 |
| 20260508214702 | 79 | 198 | 4.0 | 11.0 | 0.00 | 0.00 | 0.00 | 49 | 1008.4 |
| 20260508214201 | 79 | 159 | 3.0 | 9.0 | 0.00 | 0.00 | 0.00 | 44 | 1008.5 |
| 20260508213701 | 80 | 225 | 3.0 | 7.0 | 0.00 | 0.00 | 0.00 | 46 | 1008.5 |
| 20260508213201 | 80 | 185 | 3.0 | 7.0 | 0.00 | 0.00 | 0.00 | 44 | 1008.4 |
| 20260508212701 | 80 | 161 | 3.0 | 6.0 | 0.00 | 0.00 | 0.00 | 42 | 1008.5 |
| 20260508212201 | 80 | 214 | 3.0 | 9.0 | 0.00 | 0.00 | 0.00 | 44 | 1008.5 |
| 20260508211701 | 80 | 233 | 3.0 | 9.0 | 0.00 | 0.00 | 0.00 | 46 | 1008.6 |
| 20260508211200 | 80 | 173 | 2.0 | 5.0 | 0.00 | 0.00 | 0.00 | 44 | 1008.7 |
| 20260508210705 | 80 | 234 | 3.0 | 6.0 | 0.00 | 0.00 | 0.00 | 44 | 1008.7 |
| 20260508210202 | 79 | 232 | 3.0 | 7.0 | 0.00 | 0.00 | 0.00 | 46 | 1008.8 |
| 20260508205701 | 79 | 221 | 3.0 | 8.0 | 0.00 | 0.00 | 0.00 | 42 | 1008.8 |
| 20260508205200 | 79 | 216 | 3.0 | 8.0 | 0.00 | 0.00 | 0.00 | 42 | 1008.9 |
| 20260508204701 | 79 | 214 | 3.0 | 7.0 | 0.00 | 0.00 | 0.00 | 45 | 1009.0 |
| 20260508203702 | 79 | 206 | 3.0 | 9.0 | 0.00 | 0.00 | 0.00 | 44 | 1009.0 |
| 20260508203201 | 79 | 257 | 3.0 | 9.0 | 0.00 | 0.00 | 0.00 | 45 | 1009.1 |
| 20260508202701 | 79 | 232 | 3.0 | 9.0 | 0.00 | 0.00 | 0.00 | 42 | 1009.1 |
| 20260508202200 | 79 | 225 | 3.0 | 9.0 | 0.00 | 0.00 | 0.00 | 42 | 1009.2 |
| 20260508201701 | 79 | 172 | 3.0 | 9.0 | 0.00 | 0.00 | 0.00 | 40 | 1009.2 |
| 20260508201201 | 79 | 307 | 3.0 | 6.0 | 0.00 | 0.00 | 0.00 | 40 | 1009.2 |
| 20260508200701 | 79 | 219 | 2.0 | 7.0 | 0.00 | 0.00 | 0.00 | 43 | 1009.3 |
| 20260508200201 | 79 | 273 | 3.0 | 7.0 | 0.00 | 0.00 | 0.00 | 43 | 1009.4 |
| 20260508195701 | 78 | 215 | 3.0 | 8.0 | 0.00 | 0.00 | 0.00 | 44 | 1009.6 |
| 20260508195200 | 78 | 207 | 3.0 | 8.0 | 0.00 | 0.00 | 0.00 | 40 | 1009.7 |
| 20260508194703 | 78 | 169 | 3.0 | 7.0 | 0.00 | 0.00 | 0.00 | 41 | 1009.8 |
| 20260508193208 | 77 | 234 | 3.0 | 6.0 | 0.00 | 0.00 | 0.00 | 45 | 1009.9 |
| 20260508192705 | 77 | 150 | 3.0 | 8.0 | 0.00 | 0.00 | 0.00 | 43 | 1010.0 |
| 20260508192202 | 77 | 258 | 3.0 | 8.0 | 0.00 | 0.00 | 0.00 | 46 | 1010.0 |
| 20260508191701 | 77 | 213 | 3.0 | 8.0 | 0.00 | 0.00 | 0.00 | 42 | 1010.0 |
| 20260508191202 | 78 | 215 | 3.0 | 8.0 | 0.00 | 0.00 | 0.00 | 39 | 1010.2 |
| 20260508190702 | 77 | 168 | 3.0 | 6.0 | 0.00 | 0.00 | 0.00 | 43 | 1010.2 |
| 20260508190202 | 77 | 231 | 3.0 | 7.0 | 0.00 | 0.00 | 0.00 | 42 | 1010.3 |
| 20260508185701 | 77 | 285 | 3.0 | 7.0 | 0.00 | 0.00 | 0.00 | 46 | 1010.3 |
| 20260508184700 | 77 | 223 | 3.0 | 8.0 | 0.00 | 0.00 | 0.00 | 42 | 1010.4 |
| 20260508183647 | 77 | 300 | 2.0 | 6.0 | 0.00 | 0.00 | 0.00 | 49 | 1010.7 |
| 20260508183146 | 77 | 108 | 3.0 | 8.0 | 0.00 | 0.00 | 0.00 | 42 | 1010.8 |
| 20260508182646 | 76 | 215 | 3.0 | 8.0 | 0.00 | 0.00 | 0.00 | 47 | 1010.9 |
| 20260508182145 | 76 | 185 | 2.0 | 11.0 | 0.00 | 0.00 | 0.00 | 48 | 1010.9 |
| 20260508181646 | 76 | 80 | 3.0 | 11.0 | 0.00 | 0.00 | 0.00 | 46 | 1010.9 |
| 20260508181145 | 76 | 259 | 3.0 | 5.0 | 0.00 | 0.00 | 0.00 | 48 | 1011.1 |
| 20260508180140 | 75 | 138 | 3.0 | 8.0 | 0.00 | 0.00 | 0.00 | 49 | 1011.4 |
| 20260508175634 | 75 | 254 | 3.0 | 8.0 | 0.00 | 0.00 | 0.00 | 51 | 1011.5 |
| 20260508175134 | 75 | 292 | 3.0 | 8.0 | 0.00 | 0.00 | 0.00 | 49 | 1011.6 |
| 20260508174633 | 75 | 125 | 3.0 | 8.0 | 0.00 | 0.00 | 0.00 | 52 | 1011.8 |
| 20260508174133 | 75 | 163 | 3.0 | 7.0 | 0.00 | 0.00 | 0.00 | 52 | 1011.9 |
| 20260508173634 | 75 | 225 | 3.0 | 7.0 | 0.00 | 0.00 | 0.00 | 52 | 1011.9 |